Regional Weather Roundup
Issued by NWS

Home | Current Version | Previous Version | Text Only | Print | Product List | Glossary On
Versions: 1 2 3 4 5 6 7 8 9 10 11 12 13 14 15 16 17 18 19 20 21 22 23 24 25 26 27 28 29 30 31 32 33 34 35 36 37 38 39 40 41 42 43 44 45 46 47 48 49 50
000
ASUS42 KKEY 010310
RWRKEY

FLORIDA REGIONAL WEATHER ROUNDUP FOR THE FLORIDA KEYS
NATIONAL WEATHER SERVICE KEY WEST FLORIDA
1000 PM EST SAT FEB 28 2015

...SOUTH FLORIDA AND THE KEYS...

CITY           SKY/WX    TMP DP  RH WIND       PRES   REMARKS
FORT MYERS     CLOUDY    70  69  97 NE8       30.30R
SW REGIONAL AP CLOUDY    70  68  93 N7        30.30R
NAPLES         CLOUDY    70  69  97 NE8       30.28R
MIAMI          CLOUDY    76  70  82 E12       30.29R
WEST KENDALL   CLOUDY    74  71  91 E13       30.28R
HOMESTEAD      PTCLDY    75  71  85 E13G21    30.27R
MARATHON       CLEAR     76  74  93 E10       30.24R
BOCA CHICA NAS PTCLDY    76  72  87 E15       30.24R
KEY WEST INTL  CLEAR     76  72  87 E9        30.24R

...INTERNATIONAL WEATHER...

CITY           SKY/WX    TMP DP  RH WIND       PRES   REMARKS
NASSAU BAHAMAS PTCLDY    77  73  88 E9        30.29R
CANCUN MEXICO  PTCLDY    77  73  88 E7        30.16R
COZUMEL MEXICO PTCLDY    72  72 100 E6        30.14R

ADJACENT COASTAL WATERS...

STATION/POSITION TIME  SKY/WX   TEMP    WIND        PRES    WAVE
                                AIR SEA DIR/SP/G            HT/PER
                 (UTC)          (F)     (DEG/KT/KT) (MB)    (FT/S)
PULASKI SHOAL LI 0200            71      40/ 14/ 15 1023.5R
SAND KEY         0250            75      80/ 14/ 16 1023.8R
SOMBRERO KEY     0300            75      70/ 17/ 18 1024.5R
LONG KEY         0300            76 77   90/ 18/ 19 1025.1R
MOLASSES REEF    0300            76 76   80/ 20/ 21 1024.1R
FOWEY ROCKS      NOT AVBL
Buoy 42080       NOT AVBL

$$


USA.gov is the U.S. government's official web portal to all federal, state and local government web resources and services.